Flag for U.S.A. Weather past 2 weeks in Unalaska, Alaska, U.S.A.

Now
35 °F

Passing clouds.


Feels Like: 28 °F
Forecast: 40 / 43 °F
Wind: 9 mph from Southwest

Location: Cold Bay Airport

Current Time: Dec 26, 2014 at 1:58:36 AM

Latest Report: Dec 26, 2014 at 12:53 AM


Visibility: 10 mi

Pressure: 29.90 "Hg

Humidity: 75%

Dew point: 28 °F

Location of UnalaskaLocation

Historic Weather in Unalaska — Graph

°F

Unalaska temperature yesterday

Maximum temperature yesterday: 39 °F (at 2:53 PM)
Minimum temperature yesterday: 31 °F (at 10:53 AM)
Average temperature yesterday: 36 °F

Past Weeks' High & Low Weather Summary

 TemperatureHumidityPressure
High41 °F (Dec 19, 1:53 PM)100% (Dec 13, 12:53 AM)29.93 "Hg (Dec 13, 12:53 AM)
Low21 °F (Dec 13, 8:53 AM)60% (Dec 16, 1:53 PM)28.61 "Hg (Dec 14, 6:53 AM)
Average34 °F85%29.29 "Hg
* Reported Dec 11 12:53 AM — Dec 26 12:53 AM, Unalaska, Weather by CustomWeather, © 2014

Note: Actual official high and low records may vary slightly from our data, if they occured in-between our weather recording intervals... More about our weather records

Advertising

Unalaska weather history for previous 24 hours

 ConditionsComfort  
Time TempWeatherWind HumidityBarometerVisibility
12:53 AM
Dec 26
35 °FPassing clouds.9 mph75%29.90 "Hg10 mi
11:53 PM
Dec 25
31 °FPassing clouds.9 mph79%29.88 "Hg10 mi
10:53 PM34 °FPassing clouds.12 mph82%29.86 "Hg10 mi
9:53 PM34 °FClear.6 mph82%29.85 "Hg10 mi
8:53 PM35 °FClear.10 mph82%29.84 "Hg10 mi
7:53 PM36 °FPassing clouds.21 mph79%29.78 "Hg10 mi
6:53 PM37 °FMostly cloudy.22 mph79%29.77 "Hg10 mi
5:53 PM39 °FLight rain. Passing clouds.29 mph76%29.75 "Hg10 mi
4:53 PM38 °FSunny.22 mph76%29.72 "Hg10 mi
3:53 PM37 °FLight rain. Mostly cloudy.15 mph82%29.72 "Hg9 mi
2:53 PM39 °FBroken clouds.29 mph62%29.70 "Hg10 mi
1:53 PM35 °FBroken clouds.14 mph82%29.72 "Hg10 mi
12:53 PM36 °FScattered clouds.13 mph67%29.72 "Hg10 mi
11:53 AM37 °FScattered clouds.7 mph67%29.71 "Hg10 mi
10:53 AM31 °FScattered clouds.8 mph82%29.70 "Hg10 mi
9:53 AM34 °FPassing clouds.13 mph73%29.68 "Hg10 mi
8:53 AM36 °FPassing clouds.6 mph62%29.65 "Hg10 mi
7:53 AM33 °FPassing clouds.8 mph75%29.62 "Hg10 mi
6:53 AM36 °FPassing clouds.20 mph67%29.59 "Hg10 mi
5:53 AM36 °FClear.17 mph67%29.57 "Hg10 mi
4:53 AM36 °FPassing clouds.21 mph67%29.57 "Hg10 mi
3:53 AM36 °FPassing clouds.23 mph64%29.54 "Hg10 mi
2:53 AM37 °FPassing clouds.26 mph67%29.52 "Hg10 mi
1:53 AM37 °FClear.26 mph65%29.52 "Hg10 mi
Weather by CustomWeather, © 2014

See weather overviewHow to use our weather pages